User: anonymous   Login
Location: Unspecified
(0.0000°N, 0.0000°E)
Time: 11:44:31
(UTC+00:00)
Language:

Kosmos-1000 - Orbit

View from above orbital plane
View from above orbital plane
View from above satellite
View from above satellite

Ground track
Ground track

The orbit data is extracted from the following two-line orbital elements,

1 10776U 78034A   18017.31167490 +.00000037 +00000-0 +22543-4 0  9991
2 10776 082.9439 106.1459 0035973 084.2336 334.7414 13.75329165997112
Epoch (UTC): 17 January 2018 07:28:48
Eccentricity: 0.0035973
inclination: 82.9439°
perigee height: 954 km
apogee height: 1007 km
right ascension of ascending node: 106.1459°
argument of perigee: 84.2336°
revolutions per day: 13.75329165
mean anomaly at epoch: 334.7414°
orbit number at epoch: 99711

The dashed part of the orbit path shows where the satellite is in the earth's shadow,  

DLR